User: anonymous   Login
Location: downtown San Diego
(32.7310°N, 117.1990°W)
Time: 12:51:40
(UTC-07:00)
Language:

H-2A R/B - Orbit

View from above orbital plane
View from above orbital plane
View from above satellite
View from above satellite

Ground track
Ground track

The orbit data is extracted from the following two-line orbital elements,

1 27601U 02056E   19112.76035508  .00000031  00000-0  25969-4 0  9996
2 27601  98.2818 163.8693 0073432  92.6762  18.3666 14.31888598854340
Epoch (UTC): 22 April 2019 18:14:54
Eccentricity: 0.0073432
inclination: 98.2818°
perigee height: 733 km
apogee height: 838 km
right ascension of ascending node: 163.8693°
argument of perigee: 92.6762°
revolutions per day: 14.31888598
mean anomaly at epoch: 18.3666°
orbit number at epoch: 85434

The dashed part of the orbit path shows where the satellite is in the earth's shadow,  

DLR